TimeCST,TemperatureF,Dew PointF,Humidity,Sea Level PressureIn,VisibilityMPH,Wind Direction,Wind SpeedMPH,Gust SpeedMPH,PrecipitationIn,Events,Conditions,WindDirDegrees,DateUTC
12:54 AM,36.0,33.1,89,30.32,10.0,South,3.5,-,N/A,,Clear,170,2012-11-19 06:54:00
1:54 AM,37.0,33.1,86,30.32,10.0,SSE,4.6,-,N/A,,Clear,150,2012-11-19 07:54:00
2:54 AM,39.0,35.1,86,30.31,10.0,Calm,Calm,-,N/A,,Clear,0,2012-11-19 08:54:00
3:54 AM,44.1,37.0,76,30.30,10.0,South,6.9,-,N/A,,Clear,180,2012-11-19 09:54:00
4:54 AM,42.1,37.0,82,30.31,10.0,South,3.5,-,N/A,,Clear,190,2012-11-19 10:54:00
5:54 AM,42.1,37.0,82,30.31,10.0,Calm,Calm,-,N/A,,Clear,0,2012-11-19 11:54:00
6:54 AM,43.0,37.0,80,30.31,10.0,South,5.8,-,N/A,,Clear,170,2012-11-19 12:54:00
7:54 AM,45.0,37.9,76,30.30,10.0,South,5.8,-,N/A,,Clear,180,2012-11-19 13:54:00
8:54 AM,48.0,39.0,71,30.30,10.0,South,8.1,-,N/A,,Clear,190,2012-11-19 14:54:00
9:54 AM,51.1,41.0,68,30.30,10.0,South,8.1,-,N/A,,Clear,180,2012-11-19 15:54:00
10:54 AM,54.0,39.0,57,30.28,10.0,SSW,13.8,-,N/A,,Clear,200,2012-11-19 16:54:00
11:54 AM,55.0,41.0,59,30.25,10.0,SSW,10.4,-,N/A,,Partly Cloudy,200,2012-11-19 17:54:00
12:54 PM,55.9,42.1,60,30.24,10.0,SSW,11.5,-,N/A,,Overcast,210,2012-11-19 18:54:00
1:54 PM,55.9,42.1,60,30.22,10.0,SW,10.4,-,N/A,,Overcast,220,2012-11-19 19:54:00
2:54 PM,55.9,42.1,60,30.20,10.0,South,6.9,-,N/A,,Overcast,190,2012-11-19 20:54:00
3:54 PM,54.0,43.0,66,30.19,10.0,South,6.9,-,0.00,,Overcast,180,2012-11-19 21:54:00
4:54 PM,53.1,42.1,66,30.18,10.0,South,6.9,-,N/A,,Overcast,180,2012-11-19 22:54:00
5:54 PM,53.1,41.0,64,30.18,10.0,SSE,6.9,-,N/A,,Overcast,160,2012-11-19 23:54:00
6:54 PM,51.1,42.1,71,30.17,10.0,SSE,8.1,-,N/A,,Overcast,160,2012-11-20 00:54:00
7:54 PM,51.1,42.1,71,30.17,10.0,SSE,5.8,-,N/A,,Overcast,150,2012-11-20 01:54:00
8:54 PM,51.1,41.0,68,30.15,10.0,South,10.4,-,N/A,,Mostly Cloudy,180,2012-11-20 02:54:00
9:54 PM,51.1,44.1,77,30.15,10.0,South,10.4,-,N/A,,Overcast,180,2012-11-20 03:54:00
10:54 PM,51.1,41.0,68,30.15,10.0,South,8.1,-,N/A,,Overcast,180,2012-11-20 04:54:00
11:54 PM,50.0,42.1,74,30.14,10.0,South,5.8,-,N/A,,Overcast,190,2012-11-20 05:54:00